Retour au catalogue

COSMOS 1275 DEB

ActifPO
NORAD 17618·DEBRIS·🇷🇺 Russia

Lancé Jun 4, 1981 depuis Plesetsk Cosmodrome

Loading…

Prochains Passages (prochaines 24 heures)

TLE

FraisSource: Space-Track

Époque: Sep 14, 2026, 11:19 UTC

1 17618U 81053KM  26257.47160286  .00001358  00000-0  70795-3 0  9994
2 17618  82.8435  68.2138 0046990 278.8986 109.7309 14.13378810106618

Suivez COSMOS 1275 DEB en temps réel avec AllMySat

Download on the App Store